Location: Arroyo Grande
(40.2671°N, 4.2512°W)
Time: 05:39:29
(UTC+00:00)

Cosmos 1709 Rocket - Pass Details

Date: 03 February 2023
Orbit: 948 x 1001 km, 82.9° (Epoch: 26 March)

Event Time Altitude Azimuth Distance (km) Brightness Sun altitude
Rises 19:34:03 0° 357° (N) 3,649 7.0 -22.5°
Reaches altitude 10° 19:36:38 10° 2° (N) 2,693 6.3 -23.0°
Maximum altitude 19:42:39 55° 79° (E) 1,132 3.9 -24.1°
Enters shadow 19:43:08 54° 97° (E) 1,148 3.9 -24.2°
